QPF
0.00 0.00 0.01 0.01 0.01 0.02 0.03 0.04 0.05 0.08 0.09 0.11 0.12 0.14 0.15 0.19 0.23 0.26 0.26 0.23 0.21 0.21 0.24 0.24 0.23 0.20 0.17 0.15 0.11 0.08 0.07 0.06 0.05 0.04 0.03 0.02 0.01 0.01 0.01 0.01 0.01 0.01 0.01
0.00 0.00 0.00 0.01 0.04 0.06 0.08 0.08 0.10 0.14 0.17 0.19 0.20 0.21 0.25 0.31 0.42 0.49 0.49 0.47 0.41 0.36 0.33 0.31 0.30 0.27 0.23 0.20 0.17 0.13 0.10 0.09 0.07 0.05 0.04 0.02 0.01 0.01 0.01 0.01 0.01 0.01 0.00
0.01 0.01 0.02 0.03 0.04 0.05 0.06 0.09 0.12 0.21 0.26 0.26 0.30 0.38 0.44 0.46 0.45 0.45 0.47 0.49 0.45 0.42 0.39 0.36 0.33 0.31 0.29 0.27 0.24 0.19 0.14 0.11 0.09 0.06 0.04 0.03 0.02 0.01 0.01 0.01 0.01 0.01 0.00
0.01 0.02 0.03 0.04 0.04 0.05 0.08 0.13 0.17 0.22 0.30 0.36 0.38 0.42 0.46 0.46 0.44 0.42 0.44 0.44 0.42 0.39 0.37 0.34 0.32 0.32 0.30 0.26 0.23 0.21 0.18 0.13 0.10 0.07 0.04 0.03 0.02 0.02 0.02 0.01 0.01 0.00 0.00
0.02 0.03 0.03 0.04 0.05 0.07 0.09 0.13 0.21 0.27 0.32 0.36 0.38 0.41 0.43 0.43 0.45 0.43 0.41 0.40 0.39 0.37 0.34 0.32 0.30 0.26 0.22 0.19 0.16 0.14 0.13 0.11 0.09 0.06 0.04 0.03 0.02 0.01 0.01 0.01 0.01 0.01 0.01
0.03 0.04 0.04 0.05 0.07 0.11 0.14 0.18 0.26 0.36 0.44 0.48 0.47 0.45 0.43 0.43 0.43 0.42 0.41 0.40 0.39 0.36 0.30 0.25 0.23 0.20 0.18 0.15 0.14 0.12 0.10 0.08 0.07 0.06 0.05 0.03 0.03 0.02 0.02 0.02 0.02 0.01 0.01
0.04 0.05 0.06 0.09 0.13 0.18 0.23 0.26 0.32 0.36 0.41 0.44 0.41 0.40 0.41 0.39 0.38 0.37 0.38 0.37 0.34 0.30 0.27 0.23 0.21 0.18 0.16 0.16 0.16 0.14 0.12 0.09 0.08 0.07 0.06 0.05 0.04 0.03 0.03 0.03 0.02 0.02 0.02
0.04 0.05 0.07 0.11 0.15 0.18 0.22 0.29 0.34 0.36 0.33 0.30 0.31 0.33 0.35 0.35 0.31 0.29 0.30 0.28 0.25 0.20 0.16 0.13 0.12 0.12 0.12 0.13 0.15 0.15 0.13 0.11 0.09 0.08 0.07 0.06 0.05 0.03 0.02 0.02 0.01 0.01 0.01
0.05 0.06 0.08 0.10 0.11 0.13 0.17 0.19 0.22 0.22 0.23 0.24 0.24 0.22 0.23 0.24 0.23 0.22 0.20 0.18 0.18 0.14 0.10 0.07 0.08 0.08 0.08 0.08 0.08 0.08 0.09 0.08 0.07 0.07 0.06 0.04 0.03 0.02 0.01 0.01 0.01 0.02 0.02
0.05 0.05 0.06 0.06 0.07 0.09 0.11 0.13 0.14 0.17 0.18 0.16 0.14 0.14 0.14 0.15 0.14 0.13 0.13 0.12 0.10 0.09 0.08 0.08 0.08 0.08 0.08 0.08 0.08 0.08 0.09 0.08 0.06 0.05 0.03 0.02 0.01 0.01 0.00 0.00 0.00 0.00 0.00
0.05 0.05 0.05 0.04 0.05 0.06 0.06 0.07 0.08 0.09 0.10 0.11 0.13 0.13 0.13 0.11 0.10 0.09 0.08 0.07 0.07 0.07 0.07 0.07 0.08 0.08 0.08 0.08 0.08 0.07 0.06 0.04 0.03 0.03 0.02 0.01 0.01 0.00 0.00 0.00 0.00 0.00 0.00
0.04 0.04 0.05 0.05 0.07 0.08 0.08 0.06 0.06 0.07 0.07 0.07 0.08 0.09 0.09 0.08 0.07 0.07 0.06 0.05 0.04 0.04 0.04 0.04 0.04 0.04 0.04 0.03 0.02 0.02 0.02 0.01 0.01 0.01 0.01 0.01 0.00 0.00 0.00 0.00 0.00 0.00 0.00
0.07 0.08 0.08 0.09 0.09 0.09 0.09 0.07 0.06 0.06 0.06 0.05 0.04 0.04 0.04 0.04 0.04 0.04 0.03 0.02 0.01 0.01 0.01 0.01 0.01 0.01 0.01 0.01 0.01 0.01 0.00 0.00 0.00 0.00 0.00 0.00 0.00 0.00 0.00 0.00 0.00 0.00 0.00
0.08 0.10 0.11 0.10 0.10 0.09 0.08 0.06 0.06 0.06 0.05 0.03 0.03 0.03 0.03 0.02 0.02 0.02 0.01 0.01 0.00 0.01 0.01 0.01 0.01 0.01 0.00 0.00 0.00 0.00 0.00 0.00 0.00 0.00 0.00 0.00 0.00 0.00 0.00 0.00 0.00 0.00 0.00
0.08 0.10 0.10 0.08 0.08 0.08 0.07 0.06 0.05 0.05 0.04 0.03 0.02 0.02 0.02 0.02 0.01 0.01 0.01 0.01 0.00 0.00 0.01 0.00 0.00 0.00 0.00 0.00 0.00 0.00 0.00 0.00 0.00 0.00 0.00 0.00 0.00 0.01 0.01 0.01 0.00 0.00 0.00
0.12 0.12 0.13 0.13 0.11 0.09 0.07 0.05 0.05 0.04 0.03 0.04 0.04 0.04 0.04 0.03 0.03 0.02 0.02 0.01 0.01 0.00 0.00 0.00 0.00 0.00 0.00 0.00 0.00 0.00 0.00 0.00 0.00 0.00 0.00 0.00 0.00 0.00 0.00 0.00 0.00 0.00 0.00
0.13 0.13 0.13 0.12 0.10 0.08 0.06 0.05 0.05 0.04 0.03 0.03 0.03 0.03 0.02 0.02 0.02 0.02 0.02 0.01 0.01 0.00 0.00 0.00 0.00 0.00 0.00 0.00 0.00 0.00 0.00 0.00 0.00 0.00 0.00 0.00 0.00 0.00 0.00 0.00 0.00 0.00 0.00
0.15 0.15 0.13 0.10 0.08 0.06 0.05 0.04 0.03 0.03 0.02 0.02 0.02 0.01 0.01 0.01 0.01 0.01 0.01 0.00 0.00 0.00 0.00 0.00 0.00 0.00 0.00 0.00 0.00 0.00 0.00 0.00 0.00 0.00 0.00 0.00 0.00 0.00 0.00 0.00 0.00 0.00 0.00
0.12 0.10 0.08 0.07 0.06 0.05 0.04 0.03 0.02 0.01 0.01 0.01 0.01 0.01 0.01 0.01 0.01 0.00 0.00 0.00 0.00 0.00 0.00 0.00 0.00 0.00 0.00 0.00 0.00 0.00 0.00 0.00 0.00 0.00 0.00 0.00 0.00 0.00 0.00 0.00 0.00 0.00 0.00
0.13 0.12 0.10 0.08 0.07 0.05 0.03 0.02 0.01 0.01 0.01 0.01 0.01 0.01 0.00 0.00 0.00 0.00 0.00 0.00 0.00 0.00 0.00 0.00 0.00 0.00 0.00 0.00 0.00 0.00 0.00 0.00 0.00 0.00 0.00 0.00 0.00 0.00 0.01 0.01 0.01 0.01 0.01
0.13 0.10 0.08 0.06 0.04 0.04 0.03 0.03 0.02 0.02 0.01 0.01 0.01 0.00 0.00 0.00 0.00 0.00 0.00 0.00 0.00 0.00 0.00 0.00 0.00 0.00 0.00 0.00 0.00 0.00 0.00 0.00 0.00 0.00 0.00 0.00 0.00 0.01 0.01 0.01 0.01 0.01 0.01
0.08 0.05 0.03 0.03 0.02 0.02 0.01 0.01 0.01 0.01 0.01 0.00 0.00 0.00 0.00 0.00 0.00 0.00 0.00 0.00 0.00 0.00 0.00 0.00 0.00 0.00 0.00 0.00 0.00 0.00 0.00 0.00 0.00 0.00 0.00 0.00 0.01 0.01 0.01 0.01 0.02 0.02 0.01
0.03 0.02 0.01 0.01 0.00 0.00 0.00 0.00 0.00 0.00 0.00 0.00 0.00 0.00 0.00 0.00 0.00 0.00 0.00 0.00 0.00 0.00 0.00 0.00 0.00 0.00 0.00 0.00 0.00 0.00 0.00 0.00 0.00 0.00 0.00 0.01 0.01 0.01 0.01 0.01 0.01 0.02 0.01
0.01 0.00 0.00 0.00 0.00 0.00 0.00 0.00 0.00 0.00 0.00 0.00 0.00 0.00 0.00 0.00 0.00 0.00 0.00 0.00 0.00 0.00 0.00 0.00 0.00 0.00 0.00 0.00 0.00 0.00 0.00 0.00 0.01 0.01 0.01 0.01 0.01 0.01 0.01 0.01 0.01 0.01 0.01
0.00 0.00 0.00 0.00 0.00 0.00 0.00 0.00 0.00 0.00 0.00 0.00 0.00 0.00 0.00 0.00 0.00 0.00 0.00 0.00 0.00 0.00 0.00 0.00 0.00 0.00 0.00 0.00 0.00 0.00 0.00 0.01 0.01 0.01 0.01 0.01 0.01 0.02 0.02 0.01 0.01 0.01 0.01
0.00 0.00 0.00 0.00 0.00 0.00 0.00 0.00 0.00 0.00 0.00 0.00 0.00 0.00 0.00 0.00 0.00 0.00 0.00 0.00 0.00 0.00 0.00 0.00 0.00 0.00 0.00 0.00 0.01 0.01 0.01 0.01 0.01 0.02 0.01 0.01 0.02 0.02 0.03 0.02 0.01 0.01 0.01
MSLP
1010.02 1010.04 1010.08 1010.12 1010.15 1010.18 1010.23 1010.33 1010.52 1010.82 1011.23 1011.73 1012.30 1012.91 1013.50 1014.04 1014.51 1014.90 1015.22 1015.51 1015.77 1016.05 1016.37 1016.73 1017.13 1017.57 1018.03 1018.48 1018.90 1019.29 1019.62 1019.91 1020.15 1020.34 1020.50 1020.63 1020.73 1020.82 1020.89 1020.94 1020.99 1021.02 1021.04
1010.73 1010.70 1010.67 1010.60 1010.50 1010.38 1010.28 1010.25 1010.32 1010.53 1010.89 1011.39 1011.98 1012.63 1013.28 1013.89 1014.41 1014.85 1015.20 1015.50 1015.76 1016.03 1016.33 1016.67 1017.06 1017.49 1017.93 1018.37 1018.80 1019.19 1019.54 1019.85 1020.11 1020.34 1020.54 1020.71 1020.86 1021.00 1021.11 1021.21 1021.28 1021.34 1021.37
1011.53 1011.49 1011.41 1011.26 1011.06 1010.81 1010.57 1010.40 1010.34 1010.46 1010.75 1011.21 1011.81 1012.49 1013.19 1013.86 1014.45 1014.94 1015.34 1015.67 1015.95 1016.21 1016.49 1016.80 1017.16 1017.55 1017.96 1018.37 1018.77 1019.15 1019.50 1019.81 1020.09 1020.34 1020.57 1020.79 1020.98 1021.16 1021.31 1021.45 1021.56 1021.64 1021.69
1012.39 1012.36 1012.27 1012.09 1011.81 1011.47 1011.12 1010.82 1010.66 1010.66 1010.88 1011.29 1011.87 1012.56 1013.30 1014.01 1014.67 1015.22 1015.67 1016.04 1016.33 1016.60 1016.86 1017.15 1017.46 1017.80 1018.16 1018.53 1018.90 1019.25 1019.58 1019.89 1020.17 1020.44 1020.69 1020.93 1021.15 1021.35 1021.54 1021.70 1021.83 1021.94 1022.01
1013.25 1013.28 1013.22 1013.04 1012.75 1012.36 1011.93 1011.55 1011.28 1011.20 1011.33 1011.68 1012.21 1012.89 1013.64 1014.39 1015.08 1015.69 1016.20 1016.60 1016.92 1017.20 1017.45 1017.71 1017.98 1018.28 1018.59 1018.91 1019.23 1019.55 1019.86 1020.15 1020.44 1020.70 1020.96 1021.20 1021.43 1021.64 1021.83 1022.00 1022.14 1022.25 1022.33
1014.10 1014.21 1014.22 1014.10 1013.83 1013.44 1012.99 1012.56 1012.22 1012.06 1012.11 1012.39 1012.87 1013.50 1014.24 1014.99 1015.71 1016.36 1016.90 1017.34 1017.69 1017.98 1018.24 1018.47 1018.71 1018.96 1019.23 1019.51 1019.79 1020.08 1020.36 1020.63 1020.90 1021.15 1021.39 1021.62 1021.84 1022.03 1022.20 1022.35 1022.48 1022.58 1022.65
1014.92 1015.13 1015.24 1015.20 1015.00 1014.66 1014.23 1013.79 1013.43 1013.22 1013.21 1013.41 1013.83 1014.41 1015.09 1015.83 1016.55 1017.20 1017.77 1018.23 1018.61 1018.91 1019.16 1019.39 1019.60 1019.83 1020.05 1020.29 1020.54 1020.79 1021.04 1021.29 1021.53 1021.75 1021.97 1022.16 1022.34 1022.49 1022.63 1022.74 1022.84 1022.91 1022.96
1015.70 1016.02 1016.24 1016.30 1016.20 1015.94 1015.58 1015.18 1014.83 1014.60 1014.55 1014.70 1015.05 1015.57 1016.20 1016.88 1017.57 1018.21 1018.77 1019.24 1019.62 1019.93 1020.19 1020.40 1020.60 1020.80 1021.00 1021.21 1021.42 1021.64 1021.85 1022.06 1022.26 1022.44 1022.60 1022.75 1022.87 1022.97 1023.05 1023.12 1023.17 1023.21 1023.22
1016.44 1016.85 1017.18 1017.36 1017.37 1017.22 1016.95 1016.63 1016.33 1016.13 1016.07 1016.19 1016.48 1016.93 1017.49 1018.11 1018.74 1019.34 1019.87 1020.32 1020.69 1020.99 1021.24 1021.44 1021.63 1021.80 1021.98 1022.16 1022.33 1022.51 1022.68 1022.84 1022.99 1023.12 1023.22 1023.30 1023.36 1023.40 1023.42 1023.44 1023.44 1023.43 1023.42
1017.13 1017.63 1018.05 1018.33 1018.45 1018.42 1018.27 1018.05 1017.84 1017.70 1017.67 1017.78 1018.04 1018.43 1018.92 1019.46 1020.01 1020.54 1021.01 1021.42 1021.76 1022.03 1022.26 1022.45 1022.61 1022.77 1022.92 1023.06 1023.20 1023.34 1023.46 1023.56 1023.65 1023.70 1023.74 1023.75 1023.74 1023.72 1023.69 1023.65 1023.61 1023.57 1023.53
1017.78 1018.34 1018.82 1019.18 1019.40 1019.49 1019.46 1019.37 1019.28 1019.22 1019.25 1019.39 1019.64 1019.98 1020.40 1020.86 1021.32 1021.76 1022.15 1022.49 1022.77 1023.00 1023.20 1023.36 1023.50 1023.63 1023.74 1023.85 1023.95 1024.04 1024.10 1024.14 1024.16 1024.14 1024.11 1024.05 1023.98 1023.90 1023.82 1023.74 1023.67 1023.61 1023.55
1018.40 1018.99 1019.51 1019.93 1020.23 1020.41 1020.51 1020.55 1020.58 1020.64 1020.75 1020.93 1021.18 1021.50 1021.85 1022.22 1022.59 1022.92 1023.22 1023.48 1023.69 1023.86 1024.01 1024.13 1024.24 1024.34 1024.43 1024.50 1024.55 1024.58 1024.59 1024.56 1024.51 1024.43 1024.32 1024.20 1024.07 1023.94 1023.82 1023.72 1023.63 1023.55 1023.48
1018.99 1019.59 1020.12 1020.58 1020.93 1021.21 1021.41 1021.58 1021.73 1021.90 1022.10 1022.33 1022.60 1022.89 1023.19 1023.48 1023.75 1023.98 1024.17 1024.33 1024.46 1024.57 1024.67 1024.75 1024.83 1024.89 1024.95 1024.99 1025.00 1024.98 1024.93 1024.84 1024.72 1024.58 1024.41 1024.23 1024.05 1023.89 1023.74 1023.61 1023.51 1023.42 1023.33
1019.57 1020.16 1020.70 1021.16 1021.56 1021.90 1022.19 1022.46 1022.72 1022.99 1023.27 1023.56 1023.84 1024.11 1024.36 1024.57 1024.74 1024.87 1024.96 1025.03 1025.08 1025.12 1025.17 1025.21 1025.26 1025.30 1025.33 1025.33 1025.31 1025.25 1025.16 1025.02 1024.84 1024.64 1024.42 1024.20 1023.98 1023.77 1023.60 1023.45 1023.33 1023.22 1023.13
1020.14 1020.73 1021.26 1021.73 1022.15 1022.53 1022.89 1023.23 1023.58 1023.92 1024.25 1024.57 1024.86 1025.10 1025.30 1025.44 1025.52 1025.56 1025.57 1025.56 1025.54 1025.53 1025.53 1025.54 1025.56 1025.58 1025.59 1025.58 1025.53 1025.44 1025.31 1025.13 1024.92 1024.67 1024.41 1024.14 1023.89 1023.65 1023.45 1023.27 1023.12 1022.99 1022.87
1020.73 1021.32 1021.84 1022.31 1022.73 1023.14 1023.53 1023.92 1024.31 1024.69 1025.05 1025.38 1025.65 1025.86 1026.00 1026.07 1026.09 1026.05 1025.99 1025.92 1025.86 1025.81 1025.78 1025.77 1025.78 1025.79 1025.79 1025.76 1025.70 1025.59 1025.44 1025.23 1024.98 1024.71 1024.41 1024.11 1023.82 1023.55 1023.31 1023.09 1022.91 1022.74 1022.59
1021.36 1021.94 1022.46 1022.92 1023.35 1023.76 1024.16 1024.56 1024.96 1025.34 1025.69 1025.99 1026.22 1026.39 1026.48 1026.50 1026.46 1026.37 1026.27 1026.17 1026.08 1026.01 1025.97 1025.96 1025.96 1025.96 1025.96 1025.92 1025.85 1025.72 1025.55 1025.33 1025.06 1024.76 1024.44 1024.11 1023.78 1023.47 1023.19 1022.93 1022.70 1022.49 1022.28
1022.02 1022.61 1023.12 1023.58 1024.00 1024.40 1024.78 1025.16 1025.52 1025.87 1026.17 1026.42 1026.61 1026.72 1026.77 1026.74 1026.67 1026.57 1026.46 1026.35 1026.26 1026.19 1026.16 1026.15 1026.15 1026.15 1026.13 1026.08 1026.00 1025.86 1025.67 1025.43 1025.15 1024.82 1024.48 1024.12 1023.76 1023.41 1023.08 1022.78 1022.49 1022.23 1021.97
1022.72 1023.31 1023.82 1024.27 1024.67 1025.04 1025.38 1025.71 1026.02 1026.30 1026.53 1026.72 1026.84 1026.91 1026.92 1026.87 1026.80 1026.70 1026.60 1026.52 1026.45 1026.40 1026.38 1026.38 1026.37 1026.36 1026.33 1026.27 1026.16 1026.00 1025.79 1025.53 1025.22 1024.88 1024.51 1024.12 1023.73 1023.35 1022.98 1022.62 1022.29 1021.97 1021.67
1023.43 1024.02 1024.52 1024.95 1025.32 1025.65 1025.94 1026.20 1026.43 1026.63 1026.79 1026.90 1026.97 1027.00 1026.98 1026.94 1026.89 1026.82 1026.76 1026.72 1026.69 1026.68 1026.67 1026.67 1026.66 1026.62 1026.56 1026.46 1026.32 1026.12 1025.88 1025.60 1025.26 1024.90 1024.51 1024.10 1023.68 1023.26 1022.85 1022.46 1022.08 1021.72 1021.38
1024.13 1024.70 1025.18 1025.58 1025.92 1026.19 1026.42 1026.61 1026.76 1026.87 1026.95 1027.00 1027.03 1027.03 1027.02 1027.00 1026.98 1026.97 1026.97 1026.98 1027.00 1027.02 1027.02 1027.02 1026.98 1026.91 1026.81 1026.65 1026.46 1026.22 1025.93 1025.61 1025.25 1024.86 1024.45 1024.02 1023.58 1023.14 1022.70 1022.28 1021.88 1021.49 1021.13
1024.77 1025.31 1025.76 1026.12 1026.41 1026.63 1026.79 1026.90 1026.97 1027.02 1027.04 1027.04 1027.04 1027.04 1027.05 1027.08 1027.12 1027.17 1027.24 1027.30 1027.36 1027.40 1027.42 1027.39 1027.32 1027.20 1027.03 1026.82 1026.56 1026.26 1025.93 1025.56 1025.17 1024.76 1024.33 1023.89 1023.44 1022.98 1022.54 1022.10 1021.69 1021.29 1020.92
1025.33 1025.81 1026.21 1026.52 1026.75 1026.91 1027.01 1027.07 1027.08 1027.07 1027.05 1027.04 1027.04 1027.06 1027.11 1027.19 1027.29 1027.41 1027.54 1027.66 1027.75 1027.80 1027.81 1027.75 1027.63 1027.45 1027.22 1026.93 1026.61 1026.25 1025.87 1025.46 1025.04 1024.61 1024.17 1023.72 1023.27 1022.82 1022.38 1021.94 1021.53 1021.13 1020.75
1025.77 1026.19 1026.52 1026.77 1026.95 1027.06 1027.11 1027.11 1027.09 1027.06 1027.03 1027.01 1027.04 1027.09 1027.19 1027.33 1027.50 1027.68 1027.86 1028.01 1028.12 1028.17 1028.15 1028.05 1027.88 1027.64 1027.33 1026.98 1026.60 1026.19 1025.76 1025.33 1024.89 1024.45 1024.01 1023.57 1023.13 1022.69 1022.26 1021.83 1021.42 1021.03 1020.66
1026.09 1026.43 1026.69 1026.88 1027.01 1027.07 1027.09 1027.07 1027.03 1027.00 1026.98 1027.00 1027.06 1027.16 1027.32 1027.51 1027.73 1027.96 1028.17 1028.33 1028.44 1028.47 1028.42 1028.27 1028.05 1027.75 1027.39 1026.98 1026.55 1026.10 1025.65 1025.20 1024.76 1024.33 1023.90 1023.48 1023.05 1022.63 1022.22 1021.81 1021.41 1021.02 1020.64
1026.30 1026.56 1026.75 1026.88 1026.96 1027.00 1027.00 1026.97 1026.95 1026.93 1026.95 1027.01 1027.12 1027.28 1027.48 1027.72 1027.97 1028.22 1028.44 1028.60 1028.69 1028.69 1028.60 1028.41 1028.13 1027.79 1027.38 1026.95 1026.49 1026.03 1025.58 1025.14 1024.71 1024.29 1023.89 1023.49 1023.10 1022.70 1022.30 1021.90 1021.51 1021.11 1020.72
Thickness
5756 5760 5764 5768 5769 5768 5767 5766 5764 5762 5759 5754 5749 5744 5739 5735 5732 5729 5725 5721 5718 5714 5711 5707 5703 5699 5695 5692 5689 5686 5681 5677 5676 5673 5669 5668 5667 5666 5664 5663 5662 5660 5659
5746 5751 5756 5760 5762 5762 5761 5761 5760 5758 5755 5752 5749 5742 5735 5729 5725 5720 5717 5714 5710 5706 5702 5699 5695 5692 5688 5684 5681 5678 5673 5670 5667 5665 5661 5658 5657 5656 5655 5653 5652 5650 5649
5734 5739 5744 5748 5752 5754 5754 5755 5754 5752 5750 5746 5740 5734 5727 5721 5716 5712 5709 5704 5700 5696 5693 5690 5686 5683 5680 5677 5673 5671 5667 5662 5658 5656 5654 5650 5649 5646 5643 5641 5640 5638 5637
5725 5729 5732 5736 5739 5743 5746 5747 5747 5746 5743 5739 5732 5725 5719 5712 5709 5704 5699 5693 5690 5687 5684 5681 5677 5673 5670 5667 5664 5661 5658 5654 5649 5645 5641 5640 5639 5636 5633 5630 5627 5625 5623
5713 5716 5720 5724 5727 5731 5733 5735 5736 5735 5733 5730 5724 5718 5712 5705 5698 5693 5687 5682 5677 5674 5672 5669 5665 5662 5658 5655 5651 5648 5645 5642 5638 5634 5630 5628 5625 5623 5622 5618 5614 5611 5609
5701 5704 5708 5712 5714 5717 5719 5721 5722 5720 5717 5714 5710 5706 5701 5695 5688 5681 5675 5670 5664 5660 5659 5656 5652 5648 5645 5641 5638 5635 5631 5627 5624 5621 5618 5615 5612 5609 5606 5603 5599 5596 5593
5689 5691 5694 5697 5699 5702 5704 5705 5706 5704 5702 5700 5696 5692 5687 5681 5676 5670 5663 5658 5651 5645 5642 5642 5639 5634 5630 5626 5623 5620 5616 5613 5610 5607 5603 5600 5596 5593 5590 5587 5583 5580 5577
5676 5678 5679 5681 5683 5685 5687 5688 5687 5686 5686 5684 5679 5675 5671 5667 5660 5655 5649 5644 5638 5631 5628 5627 5624 5619 5615 5612 5609 5605 5601 5597 5594 5591 5587 5584 5580 5577 5574 5570 5567 5564 5561
5663 5663 5664 5666 5667 5668 5670 5670 5668 5668 5667 5664 5660 5657 5653 5649 5644 5637 5632 5628 5622 5618 5614 5612 5607 5603 5599 5596 5593 5589 5584 5581 5577 5573 5570 5566 5562 5559 5556 5552 5549 5546 5544
5650 5650 5649 5649 5649 5650 5650 5650 5649 5649 5648 5645 5642 5639 5634 5629 5626 5622 5616 5610 5605 5602 5598 5595 5590 5586 5583 5579 5576 5572 5567 5564 5560 5555 5551 5547 5544 5540 5537 5533 5529 5525 5523
5636 5635 5633 5632 5632 5632 5632 5631 5630 5630 5628 5626 5623 5619 5614 5611 5607 5604 5598 5593 5589 5585 5581 5578 5574 5569 5566 5562 5559 5554 5550 5546 5542 5538 5534 5530 5526 5522 5518 5514 5510 5506 5502
5621 5619 5618 5617 5616 5614 5613 5612 5611 5610 5608 5606 5604 5600 5597 5594 5589 5584 5579 5576 5572 5569 5565 5560 5556 5552 5548 5544 5541 5537 5532 5528 5524 5520 5516 5512 5509 5505 5501 5496 5492 5488 5483
5610 5607 5605 5602 5600 5598 5596 5593 5592 5590 5588 5587 5585 5582 5579 5576 5571 5566 5562 5559 5556 5552 5548 5543 5539 5535 5531 5527 5523 5519 5514 5510 5506 5502 5498 5495 5491 5488 5484 5480 5476 5472 5468
5598 5595 5591 5588 5586 5583 5580 5577 5575 5573 5571 5570 5567 5564 5560 5557 5553 5550 5546 5542 5539 5535 5531 5526 5522 5518 5514 5510 5505 5501 5497 5493 5488 5485 5482 5479 5476 5472 5468 5465 5461 5457 5454
5586 5582 5579 5575 5572 5568 5565 5562 5560 5557 5556 5554 5550 5546 5544 5541 5538 5534 5531 5527 5524 5520 5516 5511 5507 5503 5498 5493 5488 5484 5480 5475 5471 5468 5465 5463 5461 5458 5455 5452 5448 5444 5441
5574 5570 5566 5562 5558 5555 5551 5547 5545 5543 5541 5539 5535 5532 5529 5526 5523 5519 5516 5512 5509 5505 5500 5496 5492 5487 5482 5477 5473 5468 5463 5459 5455 5452 5450 5448 5446 5444 5441 5438 5436 5434 5431
5564 5558 5554 5549 5545 5540 5537 5534 5532 5530 5528 5525 5522 5519 5516 5513 5509 5506 5502 5498 5494 5490 5485 5481 5477 5472 5467 5462 5458 5453 5448 5444 5440 5437 5435 5434 5433 5430 5428 5427 5426 5425 5423
5552 5546 5541 5536 5532 5528 5525 5523 5521 5518 5516 5513 5510 5506 5504 5500 5496 5493 5489 5485 5481 5476 5472 5467 5463 5458 5453 5448 5443 5439 5435 5431 5428 5426 5424 5423 5422 5421 5419 5418 5419 5419 5419
5540 5534 5530 5525 5521 5518 5515 5512 5509 5507 5504 5501 5498 5495 5493 5489 5485 5481 5476 5472 5468 5463 5459 5454 5450 5445 5439 5435 5430 5426 5422 5420 5418 5416 5415 5415 5414 5414 5412 5413 5413 5414 5416
5528 5523 5519 5515 5511 5507 5504 5501 5498 5495 5493 5490 5488 5485 5482 5479 5474 5470 5465 5461 5456 5452 5448 5443 5438 5433 5428 5423 5419 5416 5412 5410 5409 5409 5410 5409 5408 5409 5409 5409 5409 5410 5413
5517 5513 5509 5505 5501 5498 5495 5491 5488 5486 5484 5482 5479 5476 5472 5469 5465 5460 5455 5451 5446 5441 5437 5432 5427 5422 5418 5415 5412 5408 5405 5403 5403 5403 5404 5405 5405 5406 5408 5408 5408 5408 5409
5507 5503 5499 5495 5492 5490 5487 5483 5480 5478 5476 5474 5471 5467 5464 5461 5457 5451 5446 5441 5437 5432 5427 5423 5419 5415 5411 5409 5406 5403 5401 5399 5398 5399 5400 5402 5404 5406 5408 5409 5409 5410 5410
5498 5494 5491 5487 5484 5482 5480 5477 5474 5472 5469 5466 5462 5459 5456 5452 5448 5444 5439 5434 5429 5425 5420 5416 5413 5409 5407 5404 5402 5401 5400 5399 5398 5399 5400 5402 5405 5407 5409 5410 5410 5411 5412
5491 5487 5484 5481 5478 5476 5474 5471 5469 5466 5463 5459 5455 5452 5448 5445 5440 5437 5432 5428 5424 5419 5416 5412 5408 5406 5404 5403 5401 5400 5400 5400 5400 5401 5403 5405 5407 5408 5410 5411 5412 5412 5412
5484 5481 5478 5475 5473 5470 5468 5466 5463 5460 5456 5453 5449 5446 5442 5438 5434 5430 5425 5422 5419 5415 5412 5409 5405 5404 5403 5401 5399 5398 5399 5400 5400 5402 5405 5406 5407 5409 5410 5411 5412 5413 5414
5479 5475 5472 5470 5467 5465 5463 5461 5458 5455 5452 5448 5444 5440 5436 5432 5428 5424 5421 5418 5415 5413 5410 5407 5404 5403 5401 5401 5401 5402 5402 5402 5403 5404 5404 5405 5406 5407 5408 5409 5412 5413 5413